Location: Caltech
(34.1382°N, 118.1253°W)
Time: 17:32:37
(UTC-08:00)

Saudisat 1A - Visible Passes

Search period start: 12 December 2017 00:00
Search period end: 22 December 2017 00:00
Orbit: 588 x 604 km, 64.6° (Epoch: 12 December)

Date Brightness Start Highest point End Pass type
(mag) Time Alt. Az. Time Alt. Az. Time Alt. Az.
12 Dec 10.8 03:47:22 16° E 03:47:22 16° E 03:48:59 10° ENE visible
12 Dec 8.5 05:24:10 33° W 05:25:09 37° WNW 05:29:16 10° NNE visible
13 Dec 10.8 03:58:58 14° NE 03:58:58 14° NE 03:59:40 10° NE visible
13 Dec 9.3 05:35:43 21° NW 05:35:43 21° NW 05:38:32 10° N visible
14 Dec 10.1 05:46:36 11° NNW 05:46:36 11° NNW 05:47:09 10° NNW visible
